Orbital Elements at Epoch 2459200.5 (2020-Dec-17.0) TDB
Reference: JPL 17 (heliocentric ecliptic J2000)
Element | Value | Uncertainty (1-sigma) | Units |
e | .1160404376521139 | 6.3525e-08 | |
a | 3.203926601244831 | 3.4978e-08 | au |
q | 2.832141556231131 | 2.0726e-07 | au |
i | 4.924573897838126 | 6.3958e-06 | deg |
node | 33.56944883864509 | 6.6887e-05 | deg |
peri | 127.0355053628743 | 6.9945e-05 | deg |
M | 231.6547905489339 | 2.277e-05 | deg |
tp | 2459947.291603879736 (2023-Jan-02.79160388) | 0.00013747 | TDB |
period | 2094.702081570149 5.73 | 3.4303e-05 9.392e-08 | d yr |
n | .1718621484016241 | 2.8144e-09 | deg/d |
Q | 3.57571164625853 | 3.9037e-08 | au |
|
| | Orbit Determination Parameters
Additional Information
|